Time,TemperatureF,DewpointF,PressureIn,WindDirection,WindDirectionDegrees,WindSpeedMPH,WindSpeedGustMPH,Humidity,HourlyPrecipIn,Conditions,Clouds,dailyrainin,SoftwareType,DateUTC
2013-05-06 00:01:00,48.0,42.0,30.16,South,183,0.0,1.0,79,0.00,,,0.00,weatherlink.com 1.10,2013-05-06 04:01:00,
2013-05-06 00:16:00,47.4,42.0,30.16,South,183,0.0,0.0,81,0.00,,,0.00,weatherlink.com 1.10,2013-05-06 04:16:00,
2013-05-06 00:31:00,47.3,42.0,30.16,South,184,0.0,0.0,81,0.00,,,0.00,weatherlink.com 1.10,2013-05-06 04:31:00,
2013-05-06 00:46:00,46.9,42.0,30.16,South,184,0.0,2.0,82,0.00,,,0.00,weatherlink.com 1.10,2013-05-06 04:46:00,
2013-05-06 01:01:00,46.2,41.0,30.16,South,184,0.0,0.0,83,0.00,,,0.00,weatherlink.com 1.10,2013-05-06 05:01:00,
2013-05-06 01:16:00,46.0,42.0,30.16,South,184,0.0,0.0,85,0.00,,,0.00,weatherlink.com 1.10,2013-05-06 05:16:00,
2013-05-06 01:31:00,45.8,42.0,30.15,South,184,0.0,1.0,86,0.00,,,0.00,weatherlink.com 1.10,2013-05-06 05:31:00,
2013-05-06 01:46:00,45.6,42.0,30.15,South,184,0.0,0.0,86,0.00,,,0.00,weatherlink.com 1.10,2013-05-06 05:46:00,
2013-05-06 02:01:00,45.7,42.0,30.15,South,184,0.0,0.0,86,0.00,,,0.00,weatherlink.com 1.10,2013-05-06 06:01:00,
2013-05-06 02:16:00,45.3,41.0,30.14,South,184,0.0,0.0,86,0.00,,,0.00,weatherlink.com 1.10,2013-05-06 06:16:00,
2013-05-06 02:31:00,45.0,41.0,30.14,South,184,0.0,0.0,87,0.00,,,0.00,weatherlink.com 1.10,2013-05-06 06:31:00,
2013-05-06 02:46:00,45.0,42.0,30.14,South,184,0.0,0.0,88,0.00,,,0.00,weatherlink.com 1.10,2013-05-06 06:46:00,
2013-05-06 03:01:00,44.7,42.0,30.14,South,184,0.0,0.0,89,0.00,,,0.00,weatherlink.com 1.10,2013-05-06 07:01:00,
2013-05-06 03:16:00,45.0,42.0,30.14,South,184,0.0,1.0,90,0.00,,,0.00,weatherlink.com 1.10,2013-05-06 07:16:00,
2013-05-06 03:31:00,45.7,43.0,30.13,ESE,110,0.0,2.0,89,0.00,,,0.00,weatherlink.com 1.10,2013-05-06 07:31:00,
2013-05-06 03:46:00,46.4,44.0,30.14,ESE,110,0.0,2.0,90,0.00,,,0.00,weatherlink.com 1.10,2013-05-06 07:46:00,
2013-05-06 04:01:00,46.9,44.0,30.13,ESE,110,1.0,2.0,89,0.00,,,0.00,weatherlink.com 1.10,2013-05-06 08:01:00,
2013-05-06 04:16:00,47.2,44.0,30.13,ESE,110,0.0,1.0,89,0.00,,,0.00,weatherlink.com 1.10,2013-05-06 08:16:00,
2013-05-06 04:31:00,47.2,44.0,30.14,East,84,0.0,2.0,88,0.00,,,0.00,weatherlink.com 1.10,2013-05-06 08:31:00,
2013-05-06 04:46:00,47.2,44.0,30.14,East,84,0.0,1.0,88,0.00,,,0.00,weatherlink.com 1.10,2013-05-06 08:46:00,
2013-05-06 05:01:00,47.1,44.0,30.13,East,84,1.0,2.0,88,0.00,,,0.00,weatherlink.com 1.10,2013-05-06 09:01:00,
2013-05-06 05:16:00,46.8,44.0,30.12,East,84,1.0,2.0,88,0.00,,,0.00,weatherlink.com 1.10,2013-05-06 09:16:00,
2013-05-06 05:31:00,46.9,44.0,30.13,East,84,0.0,2.0,89,0.00,,,0.00,weatherlink.com 1.10,2013-05-06 09:31:00,
2013-05-06 05:46:00,46.9,44.0,30.13,East,84,0.0,1.0,89,0.00,,,0.00,weatherlink.com 1.10,2013-05-06 09:46:00,
2013-05-06 06:01:00,46.9,44.0,30.14,East,84,2.0,2.0,89,0.00,,,0.00,weatherlink.com 1.10,2013-05-06 10:01:00,
2013-05-06 06:16:00,46.7,44.0,30.14,East,84,0.0,3.0,90,0.00,,,0.00,weatherlink.com 1.10,2013-05-06 10:16:00,
2013-05-06 06:31:00,46.5,44.0,30.14,East,84,1.0,2.0,90,0.00,,,0.00,weatherlink.com 1.10,2013-05-06 10:31:00,
2013-05-06 06:46:00,46.5,44.0,30.13,East,84,1.0,3.0,91,0.00,,,0.00,weatherlink.com 1.10,2013-05-06 10:46:00,
2013-05-06 07:01:00,46.6,44.0,30.14,East,84,1.0,3.0,90,0.00,,,0.00,weatherlink.com 1.10,2013-05-06 11:01:00,
2013-05-06 07:16:00,46.8,44.0,30.14,East,84,3.0,3.0,89,0.00,,,0.00,weatherlink.com 1.10,2013-05-06 11:16:00,
2013-05-06 07:31:00,47.1,44.0,30.14,East,84,1.0,2.0,89,0.00,,,0.00,weatherlink.com 1.10,2013-05-06 11:31:00,
2013-05-06 07:46:00,47.5,44.0,30.14,East,84,1.0,2.0,88,0.00,,,0.00,weatherlink.com 1.10,2013-05-06 11:46:00,
2013-05-06 08:01:00,47.6,44.0,30.14,East,84,0.0,2.0,86,0.00,,,0.00,weatherlink.com 1.10,2013-05-06 12:01:00,
2013-05-06 08:16:00,47.8,44.0,30.14,East,84,1.0,2.0,86,0.00,,,0.00,weatherlink.com 1.10,2013-05-06 12:16:00,
2013-05-06 08:32:00,47.8,44.0,30.14,East,84,2.0,3.0,85,0.00,,,0.00,weatherlink.com 1.10,2013-05-06 12:32:00,
2013-05-06 08:47:00,47.9,44.0,30.14,NE,46,1.0,3.0,86,0.00,,,0.00,weatherlink.com 1.10,2013-05-06 12:47:00,
2013-05-06 09:02:00,48.0,44.0,30.14,NE,40,1.0,3.0,86,0.00,,,0.00,weatherlink.com 1.10,2013-05-06 13:02:00,
2013-05-06 09:17:00,48.0,45.0,30.14,NE,40,1.0,3.0,89,0.00,,,0.00,weatherlink.com 1.10,2013-05-06 13:17:00,
2013-05-06 09:32:00,47.8,45.0,30.14,ENE,74,0.0,3.0,90,0.00,,,0.00,weatherlink.com 1.10,2013-05-06 13:32:00,
2013-05-06 09:47:00,47.7,46.0,30.14,NE,38,1.0,4.0,92,0.00,,,0.00,weatherlink.com 1.10,2013-05-06 13:47:00,
2013-05-06 10:02:00,47.9,46.0,30.14,ENE,59,1.0,3.0,93,0.00,,,0.00,weatherlink.com 1.10,2013-05-06 14:02:00,
2013-05-06 10:17:00,48.3,47.0,30.14,ENE,65,3.0,3.0,94,0.00,,,0.00,weatherlink.com 1.10,2013-05-06 14:17:00,
2013-05-06 10:32:00,48.5,47.0,30.14,East,80,0.0,5.0,94,0.00,,,0.00,weatherlink.com 1.10,2013-05-06 14:32:00,
2013-05-06 10:47:00,48.8,47.0,30.14,East,80,1.0,3.0,94,0.00,,,0.00,weatherlink.com 1.10,2013-05-06 14:47:00,
2013-05-06 11:02:00,49.3,48.0,30.14,East,87,3.0,4.0,94,0.00,,,0.00,weatherlink.com 1.10,2013-05-06 15:02:00,
2013-05-06 11:17:00,49.6,48.0,30.14,NE,44,1.0,4.0,94,0.00,,,0.00,weatherlink.com 1.10,2013-05-06 15:17:00,
2013-05-06 11:32:00,50.6,49.0,30.14,East,84,1.0,3.0,93,0.00,,,0.00,weatherlink.com 1.10,2013-05-06 15:32:00,
2013-05-06 11:47:00,50.7,49.0,30.14,ENE,78,3.0,4.0,93,0.01,,,0.01,weatherlink.com 1.10,2013-05-06 15:47:00,
2013-05-06 12:02:00,51.0,49.0,30.13,ENE,77,2.0,4.0,94,0.02,,,0.02,weatherlink.com 1.10,2013-05-06 16:02:00,
2013-05-06 12:17:00,51.2,50.0,30.13,East,80,1.0,3.0,94,0.02,,,0.02,weatherlink.com 1.10,2013-05-06 16:17:00,
2013-05-06 12:32:00,51.4,50.0,30.12,NE,44,4.0,4.0,94,0.02,,,0.02,weatherlink.com 1.10,2013-05-06 16:32:00,
2013-05-06 12:47:00,51.9,50.0,30.12,ENE,68,0.0,4.0,93,0.01,,,0.02,weatherlink.com 1.10,2013-05-06 16:47:00,
2013-05-06 13:02:00,52.4,51.0,30.12,ENE,72,3.0,4.0,93,0.00,,,0.02,weatherlink.com 1.10,2013-05-06 17:02:00,
2013-05-06 13:17:00,52.7,51.0,30.11,East,80,3.0,5.0,93,0.00,,,0.02,weatherlink.com 1.10,2013-05-06 17:17:00,
2013-05-06 13:32:00,53.3,51.0,30.11,East,81,2.0,3.0,92,0.00,,,0.02,weatherlink.com 1.10,2013-05-06 17:32:00,
2013-05-06 13:47:00,53.7,51.0,30.10,East,87,2.0,5.0,91,0.00,,,0.02,weatherlink.com 1.10,2013-05-06 17:47:00,
2013-05-06 14:02:00,53.6,51.0,30.10,East,84,3.0,5.0,92,0.00,,,0.02,weatherlink.com 1.10,2013-05-06 18:02:00,
2013-05-06 14:32:00,53.9,52.0,30.09,ENE,68,1.0,4.0,93,0.00,,,0.02,weatherlink.com 1.10,2013-05-06 18:32:00,
2013-05-06 14:47:00,54.1,52.0,30.09,East,80,1.0,3.0,93,0.00,,,0.02,weatherlink.com 1.10,2013-05-06 18:47:00,
2013-05-06 15:02:00,54.7,53.0,30.08,NE,46,0.0,4.0,92,0.00,,,0.02,weatherlink.com 1.10,2013-05-06 19:02:00,
2013-05-06 15:17:00,54.8,52.0,30.08,East,83,3.0,6.0,91,0.00,,,0.02,weatherlink.com 1.10,2013-05-06 19:17:00,
2013-05-06 15:32:00,54.8,53.0,30.08,ENE,59,2.0,5.0,92,0.00,,,0.02,weatherlink.com 1.10,2013-05-06 19:32:00,
2013-05-06 15:47:00,54.6,53.0,30.07,ENE,67,1.0,4.0,94,0.01,,,0.03,weatherlink.com 1.10,2013-05-06 19:47:00,
2013-05-06 16:17:00,54.6,53.0,30.07,ENE,64,1.0,3.0,95,0.02,,,0.04,weatherlink.com 1.10,2013-05-06 20:17:00,
2013-05-06 16:32:00,54.7,53.0,30.06,East,84,3.0,3.0,95,0.03,,,0.05,weatherlink.com 1.10,2013-05-06 20:32:00,
2013-05-06 16:47:00,54.7,53.0,30.06,ENE,66,0.0,3.0,95,0.02,,,0.05,weatherlink.com 1.10,2013-05-06 20:47:00,
2013-05-06 17:02:00,54.8,54.0,30.06,NE,49,1.0,2.0,96,0.02,,,0.05,weatherlink.com 1.10,2013-05-06 21:02:00,
2013-05-06 17:17:00,54.9,54.0,30.06,NE,49,0.0,2.0,96,0.02,,,0.06,weatherlink.com 1.10,2013-05-06 21:17:00,
2013-05-06 17:32:00,55.1,54.0,30.05,ENE,66,1.0,3.0,96,0.01,,,0.06,weatherlink.com 1.10,2013-05-06 21:32:00,
2013-05-06 17:47:00,55.2,54.0,30.05,ENE,61,1.0,3.0,96,0.01,,,0.06,weatherlink.com 1.10,2013-05-06 21:47:00,
2013-05-06 18:02:00,55.3,54.0,30.05,ENE,61,1.0,3.0,96,0.01,,,0.06,weatherlink.com 1.10,2013-05-06 22:02:00,
2013-05-06 18:17:00,55.5,54.0,30.04,NE,44,1.0,4.0,96,0.00,,,0.06,weatherlink.com 1.10,2013-05-06 22:17:00,
2013-05-06 18:32:00,55.5,55.0,30.04,ENE,75,1.0,5.0,97,0.00,,,0.06,weatherlink.com 1.10,2013-05-06 22:32:00,
2013-05-06 18:47:00,55.7,55.0,30.04,NE,51,1.0,4.0,97,0.00,,,0.06,weatherlink.com 1.10,2013-05-06 22:47:00,
2013-05-06 19:02:00,55.7,55.0,30.04,ENE,71,2.0,4.0,97,0.01,,,0.07,weatherlink.com 1.10,2013-05-06 23:02:00,
2013-05-06 19:17:00,55.7,55.0,30.04,ENE,65,1.0,3.0,97,0.01,,,0.07,weatherlink.com 1.10,2013-05-06 23:17:00,
2013-05-06 19:32:00,55.8,55.0,30.04,ENE,75,0.0,4.0,97,0.01,,,0.07,weatherlink.com 1.10,2013-05-06 23:32:00,
2013-05-06 19:48:00,55.9,55.0,30.05,ESE,106,1.0,3.0,97,0.01,,,0.07,weatherlink.com 1.10,2013-05-06 23:48:00,
2013-05-06 20:03:00,56.0,55.0,30.05,ENE,66,1.0,4.0,97,0.01,,,0.08,weatherlink.com 1.10,2013-05-07 00:03:00,
2013-05-06 20:18:00,56.0,55.0,30.06,ENE,65,2.0,3.0,97,0.01,,,0.08,weatherlink.com 1.10,2013-05-07 00:18:00,
2013-05-06 20:33:00,56.1,55.0,30.06,SE,144,1.0,4.0,97,0.01,,,0.08,weatherlink.com 1.10,2013-05-07 00:33:00,
2013-05-06 20:48:00,56.2,55.0,30.06,ENE,60,1.0,3.0,97,0.01,,,0.08,weatherlink.com 1.10,2013-05-07 00:48:00,
2013-05-06 21:03:00,56.3,56.0,30.06,ENE,60,1.0,3.0,97,0.00,,,0.08,weatherlink.com 1.10,2013-05-07 01:03:00,
2013-05-06 21:18:00,56.4,56.0,30.06,East,93,1.0,5.0,97,0.00,,,0.08,weatherlink.com 1.10,2013-05-07 01:18:00,
2013-05-06 21:33:00,56.5,56.0,30.06,ENE,76,1.0,4.0,98,0.00,,,0.08,weatherlink.com 1.10,2013-05-07 01:33:00,
2013-05-06 21:48:00,56.6,56.0,30.07,ENE,72,3.0,4.0,98,0.00,,,0.08,weatherlink.com 1.10,2013-05-07 01:48:00,
2013-05-06 22:03:00,56.7,56.0,30.07,SE,140,3.0,3.0,97,0.00,,,0.08,weatherlink.com 1.10,2013-05-07 02:03:00,
2013-05-06 22:18:00,56.7,56.0,30.07,ENE,72,3.0,5.0,97,0.00,,,0.08,weatherlink.com 1.10,2013-05-07 02:18:00,
2013-05-06 22:33:00,56.7,56.0,30.07,East,86,2.0,6.0,97,0.00,,,0.08,weatherlink.com 1.10,2013-05-07 02:33:00,
2013-05-06 22:48:00,56.6,56.0,30.06,East,99,2.0,10.0,98,0.00,,,0.08,weatherlink.com 1.10,2013-05-07 02:48:00,
2013-05-06 23:03:00,56.5,56.0,30.05,East,80,3.0,9.0,98,0.00,,,0.08,weatherlink.com 1.10,2013-05-07 03:03:00,
2013-05-06 23:18:00,56.5,56.0,30.05,ESE,122,1.0,7.0,98,0.00,,,0.08,weatherlink.com 1.10,2013-05-07 03:18:00,
2013-05-06 23:33:00,56.5,56.0,30.05,East,94,2.0,7.0,98,0.00,,,0.08,weatherlink.com 1.10,2013-05-07 03:33:00,
2013-05-06 23:48:00,56.5,56.0,30.04,ENE,76,3.0,4.0,98,0.00,,,0.08,weatherlink.com 1.10,2013-05-07 03:48:00,